[Iaude] MPEC G116: 2017 QX35 [a=1.46,e=0.32,i=8.7,H=22.24]
    mpec at cfa.harvard.edu 
    mpec at cfa.harvard.edu
       
    Tue Apr  9 10:14:43 EDT 2024
    
    
  
M.P.E.C. 2024-G116                                Issued 2024 April 9, 14:13 UT
     The Minor Planet Electronic Circulars contain information on unusual
         minor planets, routine data on comets and natural satellites,
         and occasional editorial announcements.  They are published
    on behalf of Division F of the International Astronomical Union by the
          Minor Planet Center, Smithsonian Astrophysical Observatory,
                          Cambridge, MA 02138, U.S.A.
			  
             Prepared using the Tamkin Foundation Computer Network
                              MPC at CFA.HARVARD.EDU
            URL https://www.minorplanetcenter.net/    ISSN 1523-6714
                                   2017 QX35                                    
                           Revision to MPEC 2017-R27                            
Additional Observations:
     K17Q35X 7C2024 04 05.88253710 39 44.209-17 40 14.19         21.9 GVEG116Z84
     K17Q35X 7C2024 04 05.89956510 39 41.836-17 40 14.05         21.7 GVEG116Z84
     K17Q35X KC2024 04 08.19576410 34 45.890-17 38 13.90         22.10GVEG116I52
     K17Q35X KC2024 04 08.20682310 34 44.360-17 38 13.20         22.32GVEG116I52
     K17Q35X KC2024 04 08.21610510 34 43.050-17 38 12.80               VEG116I52
     K17Q35X KC2024 04 08.22716510 34 41.590-17 38 12.80               VEG116I52
Observer details:
I52 Steward Observatory, Mt. Lemmon Station.  Observer J. K. Hogan.  Measurers
    T. Beuden, V. F. Carvajal, D. Fay, J. B. Fazekas, D. C. Fuls, A. R. Gibbs,
    A. D. Grauer, H. Groeller, J. K. Hogan, R. A. Kowalski, S. M. Larson, G.
    J. Leonard, D. Rankin, R. L. Seaman, F. C. Shelly, K. W. Wierzchos.  1.0-m
    prime focus + CCD.
Z84 Calar Alto-Schmidt.  Observers F. Ocana, R. Kresken, M. Micheli, L.
    Conversi.  Measurers F. Ocana, M. Micheli.  0.8-m f/3 Schmidt + CCD.
First and last observations above in comparison with prediction:
Residuals in seconds of arc, reference and Delta-T
240405 Z84 24.7- 26.8-    240408 I52 24.7- 25.8-    E2024-A88   +0.02 days
Orbital elements:
2017 QX35                                                Earth MOID = 0.0165 AU
Epoch 2024 Mar. 31.0 TT = JDT 2460400.5                 Veres                   
M 298.35569              (2000.0)            P               Q                  
n   0.56008787     Peri.  328.14593     +0.24045512     +0.96490055             
a   1.4575785      Node   315.51836     -0.85593502     +0.15947658             
e   0.3150456      Incl.    8.66689     -0.45777350     +0.20864836             
P   1.76           H   22.24          G   0.15           U   2                  
Residuals in seconds of arc
170831 G96  0.4+  0.2-    170902 G96  0.0   0.1+    170924 I52  0.1+  0.1-
170831 G96  0.6+  0.2-    170902 G96  0.2+  0.1+    170924 I52  0.2+  0.5+
170831 G96  0.2+  0.0     170902 G96  0.1+  0.0     170928 F51  0.2-  0.1+
170831 G96  0.2+  0.2+    170902 G96  0.4+  0.2+    170928 F51  0.3-  0.1-
170831 G96  0.4+  0.2+    170903 G96  0.2+  0.1+    170928 F51  0.0   0.2+
170831 G96  0.2+  0.1+    170903 G96  0.2+  0.3-    170928 F51  0.4-  0.0
170831 G96  0.3+  0.1+    170903 G96  0.0   0.3+    171017 H21  0.1-  0.3-
170831 G96  0.2+  0.2+    170903 G96  0.2+  0.1+    171017 H21  0.3-  0.5-
170901 G96  0.1-  0.8+    170911 H21  0.1+  0.3+    171017 H21  0.4-  0.7-
170901 G96  0.0   0.5+    170911 H21  0.0   0.1+    171019 H21  0.1-  0.2+
170901 G96  0.3-  0.3+    170913 I52  0.5-  0.1-    171019 H21  0.5-  0.3+
170901 G96  0.1+  0.1+    170913 I52  0.5-  0.4-    171019 H21  0.3-  0.1+
170901 H01  0.2+  0.1-    170913 I52  0.3-  0.4-    240405 Z84  0.4+  0.6+
170901 H01  0.3+  0.0     170913 I52  0.4-  0.0     240405 Z84  0.5+  0.2+
170901 H01  0.2+  0.1-    170920 H21  0.4+  0.2+    240408 I52  0.8+  0.3+
170901 H01  0.2+  0.1-    170920 H21  0.1+  0.1+    240408 I52  0.1+  0.2+
170902 H21  0.5-  0.3+    170920 H21  0.5+  0.0     240408 I52  0.9-  0.1-
170902 H21  0.4-  0.3+    170924 I52  0.3-  0.3-    240408 I52  0.7-  0.9-
170902 H21  0.5-  0.3+    170924 I52  0.2+  0.2-
Ephemeris:
2017 QX35                a,e,i = 1.46, 0.32, 9                   q = 0.9984
Date    TT    R. A. (2000) Decl.     Delta      r    Elong.  Phase     V
2024 03 10    11 41 11.6 -15 31 21   0.4966  1.4692   159.8    13.5    22.3
...
2024 03 25    11 07 50.3 -17 19 40   0.4276  1.4010   157.1    16.1    22.0
...
2024 04 02    10 48 34.7 -17 39 24   0.4069  1.3636   148.7    22.4    22.0
...
2024 04 08    10 35 10.5 -17 38 11   0.3976  1.3354   141.4    27.9    22.1
2024 04 09    10 33 06.0 -17 36 55   0.3965  1.3306   140.2    28.8    22.1
2024 04 10    10 31 04.8 -17 35 25   0.3954  1.3259   139.0    29.7    22.1
...
2024 04 16    10 20 15.8 -17 22 37   0.3914  1.2975   131.8    35.2    22.2
...
2024 04 24    10 09 44.6 -17 01 43   0.3896  1.2599   122.8    42.2    22.3
...
2024 05 09    10 02 28.8 -16 37 41   0.3893  1.1909   108.4    53.6    22.5
A. U. Tomatic                (C) Copyright 2024 MPC           M.P.E.C. 2024-G116
    
    
More information about the Iaude
mailing list